Time,TemperatureF,DewpointF,PressureIn,WindDirection,WindDirectionDegrees,WindSpeedMPH,WindSpeedGustMPH,Humidity,HourlyPrecipIn,Conditions,Clouds,dailyrainin,SoftwareType,DateUTC
2013-04-30 00:02:00,68.0,68.0,29.97,North,359,0.0,0.0,100,0.18,,,0.00,,2013-04-30 04:02:00,
2013-04-30 00:12:00,68.0,68.0,29.97,North,359,0.0,0.0,100,0.18,,,0.00,,2013-04-30 04:12:00,
2013-04-30 00:22:00,68.0,68.0,29.98,North,359,0.0,0.0,100,0.01,,,1.00,,2013-04-30 04:22:00,
2013-04-30 00:32:00,67.0,67.0,29.98,North,359,0.0,0.0,100,0.01,,,1.00,,2013-04-30 04:32:00,
2013-04-30 00:42:00,67.0,67.0,29.98,North,359,0.0,0.0,100,0.01,,,1.00,,2013-04-30 04:42:00,
2013-04-30 00:52:00,67.0,67.0,29.98,North,359,0.0,0.0,100,0.01,,,1.00,,2013-04-30 04:52:00,
2013-04-30 01:02:00,68.0,68.0,29.98,North,359,0.0,0.0,100,0.01,,,1.00,,2013-04-30 05:02:00,
2013-04-30 01:12:00,68.0,68.0,29.98,North,359,0.0,0.0,100,0.01,,,1.00,,2013-04-30 05:12:00,
2013-04-30 01:22:00,67.0,67.0,29.97,North,359,0.0,0.0,100,0.00,,,1.00,,2013-04-30 05:22:00,
2013-04-30 01:31:00,67.0,67.0,29.97,North,359,0.0,0.0,100,0.00,,,1.00,,2013-04-30 05:31:00,
2013-04-30 01:42:00,67.0,67.0,29.97,North,359,0.0,0.0,100,0.00,,,1.00,,2013-04-30 05:42:00,
2013-04-30 01:51:00,67.0,67.0,29.97,North,359,0.0,0.0,100,0.00,,,1.00,,2013-04-30 05:51:00,
2013-04-30 02:02:00,67.0,67.0,29.97,North,359,0.0,0.0,100,0.00,,,1.00,,2013-04-30 06:02:00,
2013-04-30 02:12:00,67.0,67.0,29.96,North,359,0.0,0.0,100,0.00,,,1.00,,2013-04-30 06:12:00,
2013-04-30 02:21:00,67.0,67.0,29.96,North,359,0.0,0.0,100,0.00,,,1.00,,2013-04-30 06:21:00,
2013-04-30 02:32:00,67.0,67.0,29.96,North,359,0.0,0.0,100,0.00,,,1.00,,2013-04-30 06:32:00,
2013-04-30 02:41:00,67.0,67.0,29.96,North,359,0.0,0.0,100,0.00,,,1.00,,2013-04-30 06:41:00,
2013-04-30 02:52:00,67.0,67.0,29.97,North,359,0.0,0.0,100,0.00,,,1.00,,2013-04-30 06:52:00,
2013-04-30 03:01:00,67.0,67.0,29.96,North,359,0.0,0.0,100,0.00,,,1.00,,2013-04-30 07:01:00,
2013-04-30 03:11:00,67.0,67.0,29.96,North,359,0.0,0.0,100,0.00,,,1.00,,2013-04-30 07:11:00,
2013-04-30 03:21:00,67.0,67.0,29.96,North,359,0.0,0.0,100,0.00,,,1.00,,2013-04-30 07:21:00,
2013-04-30 03:32:00,66.0,66.0,29.96,North,359,0.0,0.0,100,0.00,,,1.00,,2013-04-30 07:32:00,
2013-04-30 03:42:00,66.0,66.0,29.96,North,359,0.0,0.0,100,0.00,,,1.00,,2013-04-30 07:42:00,
2013-04-30 03:52:00,66.0,66.0,29.96,North,359,0.0,0.0,100,0.00,,,1.00,,2013-04-30 07:52:00,
2013-04-30 04:02:00,66.0,66.0,29.96,North,359,0.0,0.0,100,0.00,,,1.00,,2013-04-30 08:02:00,
2013-04-30 04:11:00,66.0,66.0,29.96,North,359,0.0,0.0,100,0.00,,,1.00,,2013-04-30 08:11:00,
2013-04-30 04:22:00,66.0,66.0,29.96,North,359,0.0,0.0,100,0.00,,,1.00,,2013-04-30 08:22:00,
2013-04-30 04:32:00,66.0,66.0,29.95,North,359,0.0,0.0,100,0.00,,,1.00,,2013-04-30 08:32:00,
2013-04-30 04:42:00,66.0,66.0,29.95,North,359,0.0,0.0,100,0.00,,,1.00,,2013-04-30 08:42:00,
2013-04-30 04:52:00,67.0,67.0,29.95,North,359,0.0,0.0,100,0.00,,,1.00,,2013-04-30 08:52:00,
2013-04-30 05:01:00,67.0,67.0,29.96,North,359,0.0,0.0,100,0.00,,,1.00,,2013-04-30 09:01:00,
2013-04-30 05:11:00,67.0,67.0,29.96,North,359,0.0,0.0,100,0.00,,,1.00,,2013-04-30 09:11:00,
2013-04-30 05:22:00,67.0,67.0,29.96,North,359,0.0,0.0,100,0.00,,,1.00,,2013-04-30 09:22:00,
2013-04-30 05:33:00,67.0,67.0,29.96,North,359,0.0,0.0,100,0.00,,,1.00,,2013-04-30 09:33:00,
2013-04-30 05:43:00,67.0,67.0,29.96,North,359,0.0,0.0,100,0.00,,,1.00,,2013-04-30 09:43:00,
2013-04-30 05:52:00,67.0,67.0,29.96,North,359,0.0,0.0,100,0.00,,,1.00,,2013-04-30 09:52:00,
2013-04-30 06:03:00,67.0,67.0,29.97,North,359,0.0,0.0,100,0.00,,,1.00,,2013-04-30 10:03:00,
2013-04-30 06:12:00,67.0,67.0,29.97,North,359,0.0,0.0,100,0.00,,,1.00,,2013-04-30 10:12:00,
2013-04-30 06:22:00,67.0,67.0,29.97,North,359,0.0,0.0,100,0.00,,,1.00,,2013-04-30 10:22:00,
2013-04-30 06:32:00,68.0,68.0,29.98,North,359,0.0,0.0,100,0.00,,,1.00,,2013-04-30 10:32:00,
2013-04-30 06:41:00,68.0,68.0,29.98,North,359,0.0,0.0,100,0.00,,,1.00,,2013-04-30 10:41:00,
2013-04-30 06:52:00,68.0,68.0,29.99,North,359,0.0,0.0,100,0.00,,,1.00,,2013-04-30 10:52:00,
2013-04-30 07:02:00,68.0,68.0,30.00,North,359,0.0,0.0,100,0.00,,,1.00,,2013-04-30 11:02:00,
2013-04-30 07:11:00,68.0,68.0,30.00,North,359,0.0,0.0,100,0.00,,,1.00,,2013-04-30 11:11:00,
2013-04-30 07:21:00,69.0,69.0,30.00,North,359,0.0,0.0,100,0.12,,,1.00,,2013-04-30 11:21:00,
2013-04-30 07:31:00,69.0,69.0,30.00,North,359,0.0,0.0,100,0.12,,,1.00,,2013-04-30 11:31:00,
2013-04-30 07:42:00,69.0,69.0,30.00,North,359,0.0,0.0,100,0.12,,,1.00,,2013-04-30 11:42:00,
2013-04-30 07:51:00,69.0,69.0,30.00,SSW,207,0.0,0.0,100,0.12,,,1.00,,2013-04-30 11:51:00,
2013-04-30 08:01:00,69.0,69.0,30.01,ESE,115,2.0,0.0,100,0.12,,,1.00,,2013-04-30 12:01:00,
2013-04-30 08:11:00,69.0,69.0,30.01,ESE,115,2.0,0.0,100,0.12,,,1.00,,2013-04-30 12:11:00,
2013-04-30 08:21:00,69.0,69.0,30.00,SSE,160,0.0,0.0,100,0.07,,,1.00,,2013-04-30 12:21:00,
2013-04-30 08:31:00,69.0,69.0,30.00,SSE,160,0.0,0.0,100,0.07,,,1.00,,2013-04-30 12:31:00,
2013-04-30 08:41:00,69.0,69.0,30.00,SSE,160,0.0,0.0,100,0.07,,,1.00,,2013-04-30 12:41:00,
2013-04-30 08:51:00,69.0,69.0,30.00,SSE,160,0.0,0.0,100,0.07,,,1.00,,2013-04-30 12:51:00,
2013-04-30 09:01:00,70.0,70.0,30.00,SSE,160,0.0,0.0,100,0.07,,,1.00,,2013-04-30 13:01:00,
2013-04-30 09:11:00,70.0,70.0,30.00,SSE,160,0.0,0.0,100,0.07,,,1.00,,2013-04-30 13:11:00,
2013-04-30 09:21:00,70.0,70.0,30.00,SSE,160,0.0,0.0,100,0.03,,,1.00,,2013-04-30 13:21:00,
2013-04-30 09:31:00,70.0,70.0,30.01,SSE,160,0.0,0.0,100,0.03,,,1.00,,2013-04-30 13:31:00,
2013-04-30 09:41:00,70.0,70.0,30.01,SSE,160,0.0,0.0,100,0.03,,,1.00,,2013-04-30 13:41:00,
2013-04-30 09:52:00,70.0,70.0,30.00,SE,127,0.0,0.0,100,0.03,,,1.00,,2013-04-30 13:52:00,
2013-04-30 10:02:00,71.0,71.0,30.00,South,174,0.0,0.0,100,0.03,,,1.00,,2013-04-30 14:02:00,
2013-04-30 10:11:00,70.0,70.0,30.01,South,174,0.0,0.0,100,0.00,,,1.00,,2013-04-30 14:11:00,
2013-04-30 10:21:00,70.0,70.0,30.01,South,174,0.0,0.0,100,0.00,,,1.00,,2013-04-30 14:21:00,
2013-04-30 10:31:00,70.0,70.0,30.01,SSW,194,3.0,3.0,100,0.00,,,1.00,,2013-04-30 14:31:00,
2013-04-30 10:41:00,70.0,70.0,30.01,SSW,194,3.0,3.0,100,0.00,,,1.00,,2013-04-30 14:41:00,
2013-04-30 10:52:00,70.0,70.0,30.01,SW,235,0.0,0.0,100,0.00,,,1.00,,2013-04-30 14:52:00,
2013-04-30 11:01:00,70.0,69.0,30.01,SW,235,0.0,0.0,98,0.00,,,1.00,,2013-04-30 15:01:00,
2013-04-30 11:11:00,70.0,69.0,30.01,SW,235,0.0,0.0,98,0.00,,,1.00,,2013-04-30 15:11:00,
2013-04-30 11:21:00,71.0,68.0,30.01,North,359,0.0,0.0,90,0.00,,,1.00,,2013-04-30 15:21:00,
2013-04-30 11:32:00,72.0,68.0,30.01,North,359,0.0,0.0,88,0.00,,,1.00,,2013-04-30 15:32:00,
2013-04-30 11:42:00,72.0,68.0,30.01,North,359,0.0,0.0,88,0.00,,,1.00,,2013-04-30 15:42:00,
2013-04-30 11:52:00,73.0,66.0,30.01,SE,132,0.0,0.0,80,0.00,,,1.00,,2013-04-30 15:52:00,
2013-04-30 12:02:00,75.0,68.0,30.01,SSW,193,3.0,0.0,78,0.00,,,1.00,,2013-04-30 16:02:00,
2013-04-30 12:12:00,75.0,68.0,30.01,SSW,193,3.0,0.0,78,0.00,,,1.00,,2013-04-30 16:12:00,
2013-04-30 12:23:00,77.0,68.0,30.01,East,89,0.0,0.0,74,0.00,,,1.00,,2013-04-30 16:23:00,
2013-04-30 12:33:00,77.0,66.0,30.00,North,0,4.0,4.0,70,0.00,,,1.00,,2013-04-30 16:33:00,
2013-04-30 12:42:00,77.0,66.0,30.00,North,0,4.0,4.0,70,0.00,,,1.00,,2013-04-30 16:42:00,
2013-04-30 12:52:00,78.0,67.0,29.99,North,359,0.0,0.0,69,0.00,,,1.00,,2013-04-30 16:52:00,
2013-04-30 13:02:00,79.0,66.0,29.99,North,359,0.0,0.0,65,0.00,,,1.00,,2013-04-30 17:02:00,
2013-04-30 13:12:00,79.0,65.0,29.98,North,359,0.0,0.0,62,0.00,,,1.00,,2013-04-30 17:12:00,
2013-04-30 13:22:00,79.0,65.0,29.98,North,359,0.0,0.0,62,0.00,,,1.00,,2013-04-30 17:22:00,
2013-04-30 13:32:00,80.0,64.0,29.97,North,359,0.0,0.0,58,0.00,,,1.00,,2013-04-30 17:32:00,
2013-04-30 13:42:00,82.0,63.0,29.97,North,359,0.0,0.0,53,0.00,,,1.00,,2013-04-30 17:42:00,
2013-04-30 13:52:00,82.0,63.0,29.97,North,359,0.0,0.0,53,0.00,,,1.00,,2013-04-30 17:52:00,
2013-04-30 14:01:00,83.0,63.0,29.96,North,359,0.0,0.0,51,0.00,,,1.00,,2013-04-30 18:01:00,
2013-04-30 14:11:00,84.0,63.0,29.96,North,359,0.0,0.0,50,0.00,,,1.00,,2013-04-30 18:11:00,
2013-04-30 14:22:00,84.0,63.0,29.96,North,359,0.0,0.0,50,0.00,,,1.00,,2013-04-30 18:22:00,
2013-04-30 14:32:00,84.0,64.0,29.96,NNW,338,1.0,1.0,51,0.00,,,1.00,,2013-04-30 18:32:00,
2013-04-30 14:42:00,84.0,63.0,29.96,SSE,160,2.0,4.0,49,0.00,,,1.00,,2013-04-30 18:42:00,
2013-04-30 14:52:00,84.0,63.0,29.96,SSE,160,2.0,4.0,49,0.00,,,1.00,,2013-04-30 18:52:00,
2013-04-30 15:01:00,84.0,62.0,29.96,NW,311,1.0,0.0,47,0.00,,,1.00,,2013-04-30 19:01:00,
2013-04-30 15:11:00,85.0,63.0,29.95,SE,124,4.0,4.0,48,0.00,,,1.00,,2013-04-30 19:11:00,
2013-04-30 15:22:00,85.0,63.0,29.95,SE,124,4.0,4.0,48,0.00,,,1.00,,2013-04-30 19:22:00,
2013-04-30 15:32:00,84.0,61.0,29.95,NNE,28,2.0,2.0,46,0.00,,,1.00,,2013-04-30 19:32:00,
2013-04-30 15:42:00,84.0,61.0,29.94,ENE,62,3.0,4.0,46,0.00,,,1.00,,2013-04-30 19:42:00,
2013-04-30 15:52:00,84.0,61.0,29.94,ENE,62,3.0,4.0,46,0.00,,,1.00,,2013-04-30 19:52:00,
2013-04-30 16:02:00,84.0,62.0,29.94,NE,41,1.0,0.0,47,0.00,,,1.00,,2013-04-30 20:02:00,
2013-04-30 16:11:00,84.0,62.0,29.94,NE,41,1.0,0.0,47,0.00,,,1.00,,2013-04-30 20:11:00,
2013-04-30 16:21:00,85.0,62.0,29.93,ENE,77,2.0,2.0,46,0.00,,,1.00,,2013-04-30 20:21:00,
2013-04-30 16:32:00,84.0,61.0,29.93,NE,52,3.0,3.0,46,0.00,,,1.00,,2013-04-30 20:32:00,
2013-04-30 16:42:00,84.0,61.0,29.93,NE,52,3.0,3.0,46,0.00,,,1.00,,2013-04-30 20:42:00,
2013-04-30 16:52:00,84.0,60.0,29.93,NNE,24,3.0,3.0,45,0.00,,,1.00,,2013-04-30 20:52:00,
2013-04-30 17:02:00,84.0,64.0,29.93,NE,49,6.0,10.0,52,0.00,,,1.00,,2013-04-30 21:02:00,
2013-04-30 17:11:00,83.0,65.0,29.94,North,359,6.0,6.0,55,0.00,,,1.00,,2013-04-30 21:11:00,
2013-04-30 17:22:00,83.0,65.0,29.94,North,359,6.0,6.0,55,0.00,,,1.00,,2013-04-30 21:22:00,
2013-04-30 17:32:00,82.0,66.0,29.94,ENE,62,0.0,7.0,58,0.00,,,1.00,,2013-04-30 21:32:00,
2013-04-30 17:42:00,82.0,66.0,29.94,ENE,62,0.0,7.0,58,0.00,,,1.00,,2013-04-30 21:42:00,
2013-04-30 17:53:00,81.0,65.0,29.94,North,359,0.0,0.0,59,0.00,,,1.00,,2013-04-30 21:53:00,
2013-04-30 18:02:00,81.0,66.0,29.94,North,359,0.0,0.0,60,0.00,,,1.00,,2013-04-30 22:02:00,
2013-04-30 18:12:00,81.0,66.0,29.95,North,359,2.0,7.0,61,0.00,,,1.00,,2013-04-30 22:12:00,
2013-04-30 18:23:00,81.0,66.0,29.95,North,359,2.0,7.0,61,0.00,,,1.00,,2013-04-30 22:23:00,
2013-04-30 18:32:00,80.0,67.0,29.95,North,359,0.0,0.0,65,0.00,,,1.00,,2013-04-30 22:32:00,
2013-04-30 18:42:00,80.0,67.0,29.95,North,359,0.0,0.0,65,0.00,,,1.00,,2013-04-30 22:42:00,
2013-04-30 18:52:00,79.0,68.0,29.95,ENE,66,9.0,9.0,70,0.00,,,1.00,,2013-04-30 22:52:00,
2013-04-30 19:02:00,78.0,66.0,29.95,ENE,69,4.0,0.0,67,0.00,,,1.00,,2013-04-30 23:02:00,
2013-04-30 19:12:00,77.0,66.0,29.95,NE,35,6.0,6.0,70,0.00,,,1.00,,2013-04-30 23:12:00,
2013-04-30 19:22:00,77.0,66.0,29.95,NE,35,6.0,6.0,70,0.00,,,1.00,,2013-04-30 23:22:00,
2013-04-30 19:32:00,75.0,67.0,29.99,NE,46,3.0,3.0,76,0.00,,,1.00,,2013-04-30 23:32:00,
2013-04-30 19:42:00,75.0,67.0,29.99,NE,46,3.0,3.0,76,0.00,,,1.00,,2013-04-30 23:42:00,
2013-04-30 19:52:00,73.0,68.0,29.99,ENE,75,0.0,0.0,83,0.00,,,1.00,,2013-04-30 23:52:00,
2013-04-30 20:02:00,72.0,69.0,29.98,ENE,68,0.0,0.0,90,0.00,,,1.00,,2013-05-01 00:02:00,
2013-04-30 20:11:00,72.0,69.0,29.98,ENE,68,0.0,0.0,90,0.00,,,1.00,,2013-05-01 00:11:00,
2013-04-30 20:22:00,71.0,68.0,30.01,North,11,0.0,1.0,91,0.15,,,1.00,,2013-05-01 00:22:00,
2013-04-30 20:32:00,70.0,68.0,30.01,North,359,0.0,0.0,93,0.15,,,1.00,,2013-05-01 00:32:00,
2013-04-30 20:42:00,70.0,68.0,30.01,North,359,0.0,0.0,93,0.15,,,1.00,,2013-05-01 00:42:00,
2013-04-30 20:52:00,70.0,68.0,30.02,North,359,0.0,0.0,94,0.15,,,1.00,,2013-05-01 00:52:00,
2013-04-30 21:01:00,69.0,68.0,30.02,North,359,0.0,0.0,96,0.15,,,1.00,,2013-05-01 01:01:00,
2013-04-30 21:11:00,69.0,68.0,30.02,North,359,0.0,0.0,96,0.15,,,1.00,,2013-05-01 01:11:00,
2013-04-30 21:21:00,69.0,68.0,30.03,North,359,0.0,0.0,96,0.00,,,1.00,,2013-05-01 01:21:00,
2013-04-30 21:32:00,69.0,68.0,30.03,North,359,0.0,0.0,96,0.00,,,1.00,,2013-05-01 01:32:00,
2013-04-30 21:42:00,69.0,68.0,30.03,North,359,0.0,0.0,96,0.00,,,1.00,,2013-05-01 01:42:00,
2013-04-30 21:52:00,69.0,68.0,30.03,North,359,0.0,0.0,97,0.00,,,1.00,,2013-05-01 01:52:00,
2013-04-30 22:02:00,69.0,69.0,30.02,North,359,0.0,0.0,99,0.00,,,1.00,,2013-05-01 02:02:00,
2013-04-30 22:11:00,70.0,70.0,30.01,North,359,0.0,0.0,99,0.16,,,1.00,,2013-05-01 02:11:00,
2013-04-30 22:21:00,70.0,70.0,30.01,North,359,0.0,0.0,99,0.16,,,1.00,,2013-05-01 02:21:00,
2013-04-30 22:32:00,70.0,70.0,30.02,North,359,0.0,0.0,99,0.16,,,1.00,,2013-05-01 02:32:00,
2013-04-30 22:42:00,70.0,70.0,30.02,North,359,0.0,0.0,99,0.16,,,1.00,,2013-05-01 02:42:00,
2013-04-30 22:52:00,70.0,70.0,30.01,North,359,0.0,0.0,100,0.16,,,1.00,,2013-05-01 02:52:00,
2013-04-30 23:02:00,70.0,70.0,30.01,North,359,0.0,0.0,100,0.16,,,1.00,,2013-05-01 03:02:00,
2013-04-30 23:11:00,70.0,70.0,30.01,North,359,0.0,0.0,100,0.16,,,1.00,,2013-05-01 03:11:00,
2013-04-30 23:21:00,70.0,70.0,30.03,North,359,0.0,0.0,100,0.01,,,1.00,,2013-05-01 03:21:00,
2013-04-30 23:33:00,70.0,70.0,30.02,North,359,0.0,0.0,100,0.01,,,1.00,,2013-05-01 03:33:00,
2013-04-30 23:43:00,70.0,70.0,30.02,North,359,0.0,0.0,100,0.01,,,1.00,,2013-05-01 03:43:00,
2013-04-30 23:53:00,70.0,70.0,30.02,North,359,0.0,0.0,100,0.01,,,1.00,,2013-05-01 03:53:00,